www.pogodaiklimat.ru

АРХИВ ПОГОДЫ в Норс-Бенде

Время (UTC), дата Ветер
(напр.,м/с)
 
Видим.   Явления Облачность Т
(С)
Тd
(С)
f
(%)
Тe
(С)
Тes
(С)
Комфортность

P
(гПа)

Po
(гПа)
Тmin
(С)
Tmax
(С)
R
(мм)
SD
(см)
06:56 17.08 СЗ  16 км    ясно  +13.3  +11.7  90  +13  +13    1018.5  1017.9         
07:56 17.08 СЗ  16 км    ясно  +11.7  +11.1  96  +11  +11    1017.9  1017.2         
08:56 17.08   16 км    ясно  +12.8  +11.1  89  +12  +12    1017.7  1017.2         
09:56 17.08   11 км    ясно  +12.2  +11.7  97  +12  +12    1017.6  1016.9         
10:56 17.08   16 км    ясно  +12.2  +11.7  97  +12  +12    1017.5  1016.9  +11.7  +15.6     
11:56 17.08   16 км    ясно  +12.8  +11.7  93  +12  +12    1017.3  1016.9         
12:56 17.08 ЮВ  16 км    ясно  +12.2  +11.1  93  +11  +11    1017.3  1016.6         
13:56 17.08   16 км    ясно  +15.0  +13.3  90  +15  +15    1017.5  1016.9         
14:56 17.08 СВ  16 км    ясно  +18.3  +13.3  73  +18  +20    1017.6  1016.9         
15:33 17.08 СВ  16 км    8/8 990 м  +20.0  +13.0  64  +22  +23  комфорт    1016.9         
15:56 17.08 СВ  16 км    2/2 990 м  +20.6  +12.8  61  +23  +25  комфорт  1017.4  1016.9         
16:56 17.08 С  16 км    8/8 900 м  +20.6  +12.8  61  +22  +23  комфорт  1017.3  1016.6  +11.1  +21.7     
17:56 17.08 С  7
{10} 
16 км    2/2 960 м  +20.6  +12.8  61  +22  +24  комфорт  1017.0  1016.6         
18:56 17.08 С  8
{11} 
16 км    ясно  +21.1  +13.9  63  +24  +25  комфорт  1016.6  1015.9         
19:56 17.08 С  8
{11} 
16 км    ясно  +20.6  +13.9  65  +23  +25  комфорт  1016.3  1015.9         
20:56 17.08 С  10  16 км    ясно  +20.6  +15.0  70  +23  +23  комфорт  1015.8  1015.2         
21:56 17.08 С  9
{13} 
16 км    ясно  +20.0  +14.4  70  +21  +21  комфорт  1015.1  1014.5         
22:56 17.08 С  10
{13} 
16 км    ясно  +19.4  +14.4  73  +20  +20    1014.5  1013.8  +19.4  +21.7     
23:56 17.08 С  10
{13} 
16 км    ясно  +19.4  +13.9  70  +20  +20    1013.9  1013.2         
00:56 18.08 С  10
{13} 
16 км    ясно  +17.8  +14.4  80  +16  +16    1013.3  1012.8         
01:14 18.08 С  10
{13} 
16 км    2/2 60 м  +18.0  +14.0  77  +17  +17      1012.5         
01:56 18.08 С  9
{13} 
16 км    ясно  +16.7  +14.4  86  +15  +15    1013.2  1012.5         
02:56 18.08 С  8
{11} 
16 км    ясно  +16.1  +14.4  90  +14  +14    1013.2  1012.5         
03:56 18.08 С  16 км    ясно  +16.1  +14.4  90  +15  +15    1013.3  1012.8         
04:56 18.08 С  5
{9} 
16 км    ясно  +15.6  +14.4  93  +14  +14    1013.4  1012.8  +15.6  +20.0     
05:56 18.08 С  16 км    ясно  +15.6  +13.9  90  +14  +14    1013.2  1012.5         
06:56 18.08 С  16 км    ясно  +14.4  +13.3  93  +13  +13    1013.0  1012.5         
07:56 18.08 С  14 км    ясно  +13.9  +13.3  96  +14  +14    1012.7  1012.2         
08:56 18.08 СЗ  14 км    ясно  +12.8  +12.2  96  +12  +12    1012.4  1011.8         
09:56 18.08 С  13 км    ясно  +12.8  +12.2  96  +12  +12    1012.1  1011.5         
10:56 18.08   13 км    ясно  +12.2  +12.2  100  +11  +11    1011.9  1011.5  +12.2  +15.6     
11:56 18.08   16 км    ясно  +12.8  +12.2  96  +12  +12    1011.7  1011.1         
12:56 18.08   10 км  дымка  ясно  +12.2  +11.7  97  +12  +12    1011.9  1011.1         
13:56 18.08   14 км    ясно  +13.9  +13.3  96  +13  +14    1012.2  1011.5         
14:56 18.08   16 км    ясно  +16.1  +13.9  87  +16  +18    1012.3  1011.8         
15:56 18.08 СЗ  16 км    ясно  +18.3  +14.4  78  +19  +25    1012.3  1011.8         
16:56 18.08 С  16 км    ясно  +20.0  +13.9  68  +22  +25  комфорт  1012.5  1011.8  +11.7  +20.0     
17:56 18.08 С  16 км    ясно  +20.6  +13.9  65  +23  +25  комфорт  1012.6  1011.8         
18:56 18.08 С  10
{13} 
16 км    ясно  +20.6  +12.8  61  +22  +22  комфорт  1012.6  1011.8         
19:56 18.08 С  10  16 км    ясно  +20.6  +13.3  63  +22  +22  комфорт  1012.6  1012.2         
20:56 18.08 С  9
{12} 
16 км    ясно  +20.0  +13.3  65  +21  +21  комфорт  1012.6  1011.8         
21:56 18.08 С  7
{11} 
16 км    ясно  +20.0  +13.3  65  +21  +24  комфорт  1012.7  1012.2         
22:56 18.08 С  16 км    ясно  +19.4  +13.3  68  +20  +22    1013.1  1012.5  +19.4  +21.1     
23:56 18.08 С  7
{9} 
16 км    ясно  +18.9  +13.3  70  +19  +21    1013.1  1012.5         
00:56 19.08 С  16 км    ясно  +17.8  +13.9  78  +17  +18    1013.2  1012.5         
01:56 19.08 С  16 км    ясно  +16.7  +13.9  84  +16  +17    1013.4  1012.8         
02:56 19.08 С  16 км    8/8 750 м  +16.1  +14.4  90  +16  +16    1013.9  1013.2         
03:56 19.08   16 км    10/10 690 м  +16.7  +14.4  86  +17  +17    1014.5  1013.8         

 

Местоположение метеостанции North Bend Municipal Airport: широта 43.4167 долгота -124.2500 высота над уровнем моря 5 м.

В архиве по умолчанию представлена погода в Норс-Бенде за последние 1-2 суток. Обновление информации о фактической погоде в базе происходит ежечасно! Архивные данные за месяц целиком и за предыдущие месяцы Вы можете получить, выбрав интересующий диапазон дат из раскрывающегося списка и нажав кнопку "Ввод!".

Внимание! Архив погоды МЕТАР в базе сайта в настоящее время начинается c 1 января 2011 г. Нет смысла пытаться выбрать более раннюю дату.

Внимание! Время в таблицах - всемирное. Для получения местного времени необходимо прибавить поправку, которая в Норс-Бенде равна -8 ч.

Ветер - указаны скорость ветра в м/с и направление, откуда дует ветер: С - северный, СВ - северо-восточный, В - восточный, ЮВ - юго-восточный, Ю - южный, ЮЗ - юго-западный, З - западный, СЗ - северо-западный.
Видимость - горизонтальная дальность видимости в метрах или километрах. При видимости от 1 до 10 км при отсутствии осадков обычно наблюдается дымка, при ухудшении видимости до 1 км и менее - туман. В сухую погоду видимость может ухудшаться дымом, пылью или мглою.
Атмосферные явления - указаны явления, наблюдавшиеся в указанный момент времени.
Облачность - указаны через наклонную черту верхняя и нижняя облачность в баллах и высота нижней границы облаков в метрах. Внимание: облачность, как и прочие метеорологические величины в США измеряются автоматическими метеостанциями. Указанные значения в баллах носят условный характер и показывают процент времени, в течение которого, в среднем, лазерный луч высотомера отражался от облаков обратно.
T - Температура воздуха - температура, измеренная на высоте 2 м над землей.
Td - Температура точки росы - температура, при понижении до которой содержащийся в воздухе водяной пар достигнет насыщения.
f - Относительная влажность воздуха - влажноcть воздуха, измеренная на высоте 2 м над землей.
Te - Эффективная температура - температура, которую ощущает одетый по сезону человек в тени. Характеристика душности погоды. При расчете учитывается влияние влажности воздуха и скорости ветра на теплоощущения человека.
Tes - Эффективная температура на солнце - температура, которую ощущает человек, с поправкой на солнечный нагрев. Характеристика знойности погоды. Зависит от высоты солнца над горизонтом, облачности и скорости ветра. Ночью, в пасмурную погоду, а также при ветре 12 м/с и более поправка равна нулю.
P - Атмосферное давление - приведенное к уровню моря атмосферное давление.
Po - Атмосферное давление - измеренное на уровне метеостанции атмосферное давление.
Tmin - Минимальная температура - минимум температуры воздуха на высоте 2 м над землей.
Tmax - Максимальная температура - максимум температуры воздуха на высоте 2 м над землей.
R - Количество осадков - Количество выпавших осадков за 3 или 6 часов, мм.
SD - Снежный покров - Высота снежного покрова, см.